Time,TemperatureF,DewpointF,PressureIn,WindDirection,WindDirectionDegrees,WindSpeedMPH,WindSpeedGustMPH,Humidity,HourlyPrecipIn,Conditions,Clouds,dailyrainin,SoftwareType,DateUTC
2013-06-25 00:02:00,57.0,46.0,-100.00,West,264,3.0,5.0,66,-99.99,,,-99.99,,2013-06-25 07:02:00,
2013-06-25 00:11:00,57.0,46.0,-100.00,West,264,3.0,5.0,66,-99.99,,,-99.99,,2013-06-25 07:11:00,
2013-06-25 00:20:00,57.0,47.0,-100.00,South,188,0.0,2.0,68,-99.99,,,-99.99,,2013-06-25 07:20:00,
2013-06-25 00:22:00,57.0,46.0,-100.00,West,264,3.0,5.0,66,-99.99,,,-99.99,,2013-06-25 07:22:00,
2013-06-25 00:43:00,58.0,47.0,-100.00,WSW,248,1.0,4.0,67,-99.99,,,-99.99,,2013-06-25 07:43:00,
2013-06-25 00:52:00,57.0,47.0,-100.00,South,188,0.0,2.0,68,-99.99,,,-99.99,,2013-06-25 07:52:00,
2013-06-25 01:01:00,57.0,47.0,-100.00,South,188,0.0,2.0,68,-99.99,,,-99.99,,2013-06-25 08:01:00,
2013-06-25 01:11:00,57.0,47.0,-100.00,South,188,0.0,2.0,68,-99.99,,,-99.99,,2013-06-25 08:11:00,
2013-06-25 01:43:00,56.0,48.0,-100.00,South,169,1.0,3.0,74,-99.99,,,-99.99,,2013-06-25 08:43:00,
2013-06-25 01:53:00,56.0,49.0,-100.00,West,264,1.0,3.0,77,-99.99,,,-99.99,,2013-06-25 08:53:00,
2013-06-25 02:01:00,56.0,49.0,-100.00,West,264,1.0,3.0,77,-99.99,,,-99.99,,2013-06-25 09:01:00,
2013-06-25 02:12:00,55.0,48.0,-100.00,NNW,335,1.0,3.0,78,-99.99,,,-99.99,,2013-06-25 09:12:00,
2013-06-25 02:21:00,55.0,48.0,-100.00,NNW,335,1.0,3.0,78,-99.99,,,-99.99,,2013-06-25 09:21:00,
2013-06-25 02:33:00,55.0,48.0,-100.00,NNW,335,1.0,3.0,78,-99.99,,,-99.99,,2013-06-25 09:33:00,
2013-06-25 02:43:00,55.0,48.0,-100.00,NNW,343,2.0,7.0,76,-99.99,,,-99.99,,2013-06-25 09:43:00,
2013-06-25 02:53:00,56.0,48.0,-100.00,NNW,335,5.0,10.0,73,-99.99,,,-99.99,,2013-06-25 09:53:00,
2013-06-25 03:01:00,56.0,48.0,-100.00,NNW,335,5.0,10.0,73,-99.99,,,-99.99,,2013-06-25 10:01:00,
2013-06-25 03:21:00,56.0,47.0,-100.00,North,349,4.0,8.0,71,-99.99,,,-99.99,,2013-06-25 10:21:00,
2013-06-25 03:33:00,56.0,47.0,-100.00,North,349,4.0,8.0,71,-99.99,,,-99.99,,2013-06-25 10:33:00,
2013-06-25 03:42:00,56.0,47.0,-100.00,NNE,28,3.0,7.0,72,-99.99,,,-99.99,,2013-06-25 10:42:00,
2013-06-25 03:52:00,56.0,47.0,-100.00,NNE,28,3.0,7.0,72,-99.99,,,-99.99,,2013-06-25 10:52:00,
2013-06-25 04:02:00,59.0,46.0,-100.00,North,350,4.0,8.0,62,-99.99,,,-99.99,,2013-06-25 11:02:00,
2013-06-25 04:11:00,59.0,46.0,-100.00,North,350,4.0,8.0,62,-99.99,,,-99.99,,2013-06-25 11:11:00,
2013-06-25 04:34:00,57.0,46.0,-100.00,WSW,258,2.0,4.0,67,-99.99,,,-99.99,,2013-06-25 11:34:00,
2013-06-25 04:43:00,57.0,47.0,-100.00,SSW,203,2.0,6.0,69,-99.99,,,-99.99,,2013-06-25 11:43:00,
2013-06-25 04:52:00,57.0,47.0,-100.00,SSW,203,2.0,6.0,69,-99.99,,,-99.99,,2013-06-25 11:52:00,
2013-06-25 05:01:00,58.0,48.0,-100.00,NW,312,5.0,9.0,69,-99.99,,,-99.99,,2013-06-25 12:01:00,
2013-06-25 05:11:00,58.0,48.0,-100.00,NW,312,5.0,9.0,69,-99.99,,,-99.99,,2013-06-25 12:11:00,
2013-06-25 05:22:00,58.0,48.0,-100.00,NW,312,5.0,9.0,69,-99.99,,,-99.99,,2013-06-25 12:22:00,
2013-06-25 05:43:00,57.0,48.0,-100.00,SW,215,1.0,4.0,72,-99.99,,,-99.99,,2013-06-25 12:43:00,
2013-06-25 05:55:00,57.0,48.0,-100.00,SW,215,1.0,4.0,72,-99.99,,,-99.99,,2013-06-25 12:55:00,
2013-06-25 06:11:00,56.0,48.0,-100.00,West,264,2.0,5.0,76,-99.99,,,-99.99,,2013-06-25 13:11:00,
2013-06-25 06:34:00,57.0,48.0,-100.00,SW,223,3.0,8.0,73,-99.99,,,-99.99,,2013-06-25 13:34:00,
2013-06-25 06:53:00,60.0,47.0,-100.00,SSW,193,8.0,17.0,62,-99.99,,,-99.99,,2013-06-25 13:53:00,
2013-06-25 07:01:00,60.0,47.0,-100.00,SSW,193,8.0,17.0,62,-99.99,,,-99.99,,2013-06-25 14:01:00,
2013-06-25 07:11:00,60.0,47.0,-100.00,SSW,193,8.0,17.0,62,-99.99,,,-99.99,,2013-06-25 14:11:00,
2013-06-25 07:22:00,62.0,48.0,-100.00,South,172,12.0,22.0,59,-99.99,,,-99.99,,2013-06-25 14:22:00,
2013-06-25 07:34:00,62.0,48.0,-100.00,South,171,12.0,22.0,59,-99.99,,,-99.99,,2013-06-25 14:34:00,
2013-06-25 07:43:00,62.0,47.0,-100.00,South,171,12.0,22.0,59,-99.99,,,-99.99,,2013-06-25 14:43:00,
2013-06-25 07:53:00,62.0,47.0,-100.00,SSE,168,11.0,24.0,57,-99.99,,,-99.99,,2013-06-25 14:53:00,
2013-06-25 08:01:00,62.0,47.0,-100.00,SSE,168,11.0,24.0,57,-99.99,,,-99.99,,2013-06-25 15:01:00,
2013-06-25 08:11:00,62.0,47.0,-100.00,SSE,168,11.0,24.0,57,-99.99,,,-99.99,,2013-06-25 15:11:00,